TimeAKST,TemperatureF,Dew PointF,Humidity,Sea Level PressureIn,VisibilityMPH,Wind Direction,Wind SpeedMPH,Gust SpeedMPH,PrecipitationIn,Events,Conditions,WindDirDegrees,DateUTC
12:16 AM,30.2,24.8,80,29.93,10.0,NNE,10.4,27.6,N/A,,Overcast,20,2012-11-16 09:16:00
12:36 AM,30.2,24.8,80,29.93,10.0,North,18.4,28.8,N/A,,Overcast,360,2012-11-16 09:36:00
12:56 AM,30.2,24.8,80,29.88,10.0,NNW,38.0,43.7,N/A,,Overcast,330,2012-11-16 09:56:00
1:16 AM,30.2,26.6,86,29.84,10.0,NNW,43.7,51.8,N/A,,Scattered Clouds,340,2012-11-16 10:16:00
1:36 AM,30.2,26.6,86,29.87,10.0,North,34.5,46.0,N/A,,Partly Cloudy,350,2012-11-16 10:36:00
1:56 AM,30.2,26.6,86,29.91,10.0,NNW,26.5,41.4,N/A,,Partly Cloudy,340,2012-11-16 10:56:00
2:16 AM,30.2,24.8,80,29.96,10.0,WNW,10.4,16.1,N/A,,Mostly Cloudy,290,2012-11-16 11:16:00
2:36 AM,30.2,24.8,80,29.95,10.0,WNW,12.7,23.0,N/A,,Overcast,290,2012-11-16 11:36:00
2:56 AM,30.2,24.8,80,29.94,10.0,NNW,26.5,31.1,N/A,,Overcast,340,2012-11-16 11:56:00
3:16 AM,30.2,24.8,80,29.91,10.0,NNW,28.8,-,N/A,,Scattered Clouds,340,2012-11-16 12:16:00
3:36 AM,30.2,26.6,86,29.93,10.0,NNW,24.2,-,N/A,,Clear,340,2012-11-16 12:36:00
3:56 AM,30.2,24.8,80,29.95,10.0,NNW,23.0,29.9,N/A,,Partly Cloudy,340,2012-11-16 12:56:00
4:16 AM,30.2,24.8,80,29.96,10.0,NNW,25.3,31.1,N/A,,Partly Cloudy,330,2012-11-16 13:16:00
4:36 AM,30.2,24.8,80,29.95,10.0,NNW,26.5,33.4,N/A,,Clear,330,2012-11-16 13:36:00
4:56 AM,30.2,26.6,86,29.95,10.0,NNW,27.6,32.2,N/A,,Clear,330,2012-11-16 13:56:00
5:16 AM,30.2,24.8,80,29.95,10.0,NW,26.5,34.5,N/A,,Partly Cloudy,320,2012-11-16 14:16:00
5:36 AM,30.2,26.6,86,29.97,10.0,NNW,19.6,-,N/A,,Scattered Clouds,340,2012-11-16 14:36:00
5:56 AM,30.2,24.8,80,29.98,10.0,NNW,15.0,23.0,N/A,,Partly Cloudy,340,2012-11-16 14:56:00
6:16 AM,30.2,24.8,80,29.98,10.0,North,8.1,17.3,N/A,,Mostly Cloudy,360,2012-11-16 15:16:00
6:36 AM,30.2,24.8,80,29.99,10.0,NNW,9.2,-,N/A,,Overcast,330,2012-11-16 15:36:00
6:56 AM,30.2,24.8,80,29.99,10.0,North,15.0,-,N/A,,Scattered Clouds,350,2012-11-16 15:56:00
7:16 AM,30.2,24.8,80,29.99,10.0,NNW,15.0,-,N/A,,Scattered Clouds,340,2012-11-16 16:16:00
7:36 AM,30.2,24.8,80,29.97,10.0,NNW,21.9,27.6,N/A,,Partly Cloudy,330,2012-11-16 16:36:00
7:56 AM,30.2,24.8,80,29.97,10.0,NW,21.9,-,N/A,,Scattered Clouds,320,2012-11-16 16:56:00
8:16 AM,30.2,26.6,86,29.96,10.0,NW,21.9,27.6,N/A,,Scattered Clouds,310,2012-11-16 17:16:00
8:36 AM,30.2,26.6,86,29.96,10.0,NW,17.3,-,N/A,,Scattered Clouds,320,2012-11-16 17:36:00
8:56 AM,30.2,26.6,86,29.95,10.0,NNW,18.4,-,N/A,,Partly Cloudy,330,2012-11-16 17:56:00
9:16 AM,30.2,26.6,86,29.96,10.0,NNW,16.1,23.0,N/A,,Partly Cloudy,330,2012-11-16 18:16:00
9:36 AM,30.2,24.8,80,29.95,10.0,North,9.2,-,N/A,,Partly Cloudy,360,2012-11-16 18:36:00
9:56 AM,30.2,24.8,80,29.94,10.0,NNW,8.1,-,N/A,,Partly Cloudy,330,2012-11-16 18:56:00
10:16 AM,30.2,24.8,80,29.91,10.0,NW,17.3,-,N/A,,Partly Cloudy,320,2012-11-16 19:16:00
10:36 AM,32.0,24.8,75,29.92,10.0,WNW,18.4,21.9,N/A,,Partly Cloudy,300,2012-11-16 19:36:00
10:56 AM,33.8,24.8,70,29.91,10.0,NW,11.5,-,N/A,,Partly Cloudy,320,2012-11-16 19:56:00
11:16 AM,33.8,24.8,70,29.89,10.0,North,26.5,32.2,N/A,,Partly Cloudy,350,2012-11-16 20:16:00
11:36 AM,35.6,24.8,65,29.91,10.0,NNW,10.4,18.4,N/A,,Partly Cloudy,340,2012-11-16 20:36:00
11:56 AM,35.6,24.8,65,29.90,10.0,NW,10.4,-,N/A,,Scattered Clouds,320,2012-11-16 20:56:00
12:16 PM,35.6,19.4,52,29.88,10.0,NNW,18.4,26.5,N/A,,Scattered Clouds,340,2012-11-16 21:16:00
12:36 PM,35.6,21.2,56,29.86,10.0,North,13.8,23.0,N/A,,Scattered Clouds,360,2012-11-16 21:36:00
12:56 PM,35.6,24.8,65,29.88,10.0,NNW,12.7,20.7,N/A,,Scattered Clouds,330,2012-11-16 21:56:00
1:16 PM,35.6,24.8,65,29.87,10.0,North,15.0,18.4,N/A,,Scattered Clouds,360,2012-11-16 22:16:00
1:36 PM,35.6,23.0,60,29.85,10.0,NW,11.5,-,N/A,,Scattered Clouds,320,2012-11-16 22:36:00
1:56 PM,35.6,21.2,56,29.85,10.0,WNW,12.7,18.4,N/A,,Scattered Clouds,300,2012-11-16 22:56:00
2:16 PM,35.6,21.2,56,29.83,10.0,NW,13.8,-,N/A,,Scattered Clouds,320,2012-11-16 23:16:00
2:36 PM,35.6,24.8,65,29.84,10.0,NW,13.8,-,N/A,,Scattered Clouds,320,2012-11-16 23:36:00
2:56 PM,35.6,24.8,65,29.83,10.0,NNW,9.2,-,N/A,,Mostly Cloudy,340,2012-11-16 23:56:00
3:16 PM,35.6,24.8,65,29.83,10.0,WSW,11.5,-,N/A,,Mostly Cloudy,250,2012-11-17 00:16:00
3:36 PM,35.6,19.4,52,29.80,10.0,NW,5.8,-,N/A,,Mostly Cloudy,320,2012-11-17 00:36:00
3:56 PM,35.6,23.0,60,29.80,10.0,NNW,3.5,-,N/A,,Mostly Cloudy,330,2012-11-17 00:56:00
4:16 PM,35.6,23.0,60,29.79,10.0,West,8.1,-,N/A,,Mostly Cloudy,280,2012-11-17 01:16:00
4:36 PM,33.8,23.0,65,29.77,10.0,West,9.2,-,N/A,,Mostly Cloudy,270,2012-11-17 01:36:00
4:56 PM,35.6,21.2,56,29.75,10.0,Calm,Calm,-,N/A,,Mostly Cloudy,0,2012-11-17 01:56:00
5:16 PM,33.8,24.8,70,29.75,10.0,WNW,5.8,-,N/A,,Mostly Cloudy,290,2012-11-17 02:16:00
5:36 PM,33.8,24.8,70,29.74,10.0,NW,4.6,-,N/A,,Mostly Cloudy,310,2012-11-17 02:36:00
5:56 PM,33.8,24.8,70,29.73,10.0,NW,5.8,-,N/A,,Mostly Cloudy,320,2012-11-17 02:56:00
6:16 PM,35.6,24.8,65,29.70,10.0,North,5.8,-,N/A,,Mostly Cloudy,350,2012-11-17 03:16:00
6:36 PM,35.6,24.8,65,29.69,10.0,North,9.2,-,N/A,,Mostly Cloudy,350,2012-11-17 03:36:00
6:56 PM,35.6,26.6,70,29.67,10.0,NNW,8.1,-,N/A,,Mostly Cloudy,340,2012-11-17 03:56:00
7:16 PM,35.6,26.6,70,29.66,10.0,Calm,Calm,-,N/A,,Overcast,0,2012-11-17 04:16:00
7:36 PM,35.6,24.8,65,29.65,10.0,WSW,3.5,-,N/A,,Overcast,250,2012-11-17 04:36:00
7:56 PM,35.6,24.8,65,29.64,10.0,SSW,4.6,-,N/A,,Mostly Cloudy,210,2012-11-17 04:56:00
8:16 PM,35.6,24.8,65,29.63,10.0,Calm,Calm,-,N/A,,Overcast,0,2012-11-17 05:16:00
8:36 PM,35.6,24.8,65,29.62,10.0,Calm,Calm,-,N/A,,Overcast,0,2012-11-17 05:36:00
8:56 PM,35.6,24.8,65,29.61,10.0,Calm,Calm,-,N/A,,Overcast,0,2012-11-17 05:56:00
9:16 PM,35.6,28.4,75,29.60,10.0,WNW,6.9,-,N/A,,Overcast,300,2012-11-17 06:16:00
9:36 PM,35.6,26.6,70,29.62,10.0,WNW,10.4,-,N/A,,Overcast,290,2012-11-17 06:36:00
9:56 PM,37.4,24.8,60,29.59,10.0,NW,4.6,-,N/A,,Overcast,320,2012-11-17 06:56:00
10:16 PM,35.6,26.6,70,29.58,10.0,West,3.5,-,N/A,,Overcast,260,2012-11-17 07:16:00
10:36 PM,35.6,26.6,70,29.58,10.0,SSW,9.2,-,N/A,,Overcast,200,2012-11-17 07:36:00
10:56 PM,35.6,28.4,75,29.57,10.0,SSW,10.4,-,N/A,,Overcast,200,2012-11-17 07:56:00
11:16 PM,35.6,30.2,81,29.56,10.0,SSE,6.9,-,N/A,,Overcast,160,2012-11-17 08:16:00
11:36 PM,33.8,30.2,87,29.55,10.0,SE,5.8,-,N/A,,Overcast,130,2012-11-17 08:36:00
11:56 PM,33.8,30.2,87,29.54,10.0,SSE,5.8,-,N/A,,Overcast,150,2012-11-17 08:56:00